Randolph AFB, TX

6:17 PM CDT on July 24, 2017 (GMT -0500)
Randolph Air Force Base

Weather History for KRND - November, 2012

Change the Weather History Date:

Tuesday, November 6, 2012

  Actual Average Record
Temperature  
Mean Temperature 66 °F -  
Max Temperature 77 °F 71 °F 89 °F (1996)
Min Temperature 52 °F 51 °F 35 °F (2010)
Growing Degree Days 16 (Base 50)    
Moisture  
Dew Point 43 °F    
Average Humidity 47    
Maximum Humidity 84    
Minimum Humidity 28    
Precipitation  
Precipitation 0.00 in - - ()
Sea Level Pressure  
Sea Level Pressure 30.11 in    
Wind  
Wind Speed 5 mph (NNE)    
Max Wind Speed 10 mph    
Max Gust Speed -    
Visibility 10 miles    
Events Rain    
Averages and records for this station are not official NWS values.
T = Trace of Precipitation, MM = Missing Value Source: NWS Daily Summary

Daily Weather History Graph

Daily Weather History Graph

Search for Another Location

Airport or City:

Trip Planner

Search our weather history database for the weather conditions in past years. The results will help you decide how hot, cold, wet, or windy it might be!

Date:

Astronomy

Nov. 06, 2012 Rise Set
Actual Time 6:50 AM CST 5:42 PM CST
Civil Twilight 6:25 AM CST 6:07 PM CST
Nautical Twilight 5:57 AM CST 6:35 PM CST
Astronomical Twilight 5:29 AM CST 7:03 PM CST
Moon No Moon Rise 12:47 PM CST (11/6)
Length of Visible Light 11h 41m
Length of Day
10h 52m
Waning Gibbous, 53% of the Moon is Illuminated
Nov 6
Waning Gibbous
Nov 6
Last Quarter
Nov 13
New
Nov 20
First Quarter
Nov 28
Full

Hourly Weather History & Observations

Time (CST) Temp. Dew Point Humidity Pressure Visibility Wind Dir Wind Speed Gust Speed Precip Events Conditions
12:55 AM 60.8 °F 49.1 °F 65% 30.07 in 10.0 mi NE 4.6 mph - N/A   Mostly Cloudy
1:55 AM 60.8 °F 50.4 °F 68% 30.08 in 10.0 mi NNE 5.8 mph - N/A   Scattered Clouds
2:55 AM 61.9 °F 42.8 °F 50% 30.07 in 10.0 mi NNE 9.2 mph - N/A   Partly Cloudy
3:55 AM 60.8 °F 39.0 °F 45% 30.08 in 10.0 mi NNE 8.1 mph - N/A   Clear
4:55 AM 59.4 °F 37.8 °F 45% 30.07 in 10.0 mi NE 10.4 mph - N/A   Clear
5:55 AM 57.2 °F 36.9 °F 47% 30.09 in 10.0 mi NE 9.2 mph - N/A   Clear
6:55 AM 55.2 °F 36.5 °F 49% 30.13 in 10.0 mi NNE 5.8 mph - N/A   Clear
7:55 AM 58.1 °F 37.6 °F 46% 30.16 in 10.0 mi NNE 6.9 mph - N/A   Clear
8:55 AM 62.6 °F 39.0 °F 42% 30.19 in 10.0 mi NE 8.1 mph - N/A   Clear
9:55 AM 65.5 °F 38.5 °F 37% 30.20 in 10.0 mi NE 8.1 mph - N/A   Clear
10:55 AM 67.3 °F 39.4 °F 36% 30.19 in 10.0 mi Variable 3.5 mph - N/A   Clear
11:55 AM 70.0 °F 39.6 °F 33% 30.16 in 10.0 mi Calm Calm - N/A   Clear
12:55 PM 71.8 °F 39.6 °F 31% 30.13 in 10.0 mi Calm Calm - N/A   Clear
1:55 PM 74.8 °F 39.2 °F 28% 30.10 in 10.0 mi Calm Calm - N/A   Clear
2:55 PM 76.8 °F 42.3 °F 29% 30.09 in 10.0 mi West 4.6 mph - N/A   Clear
3:55 PM 77.0 °F 41.7 °F 28% 30.08 in 10.0 mi West 4.6 mph - N/A   Clear
4:04 PM 77.0 °F 42.8 °F 29% 30.08 in 10.0 mi Calm Calm - N/A Rain Light Rain
4:06 PM 77.0 °F 42.8 °F 29% 30.08 in 10.0 mi SSW 3.5 mph - N/A   Clear
4:30 PM 77.0 °F 42.8 °F 29% 30.08 in 10.0 mi SSW 4.6 mph - N/A   Light Drizzle
4:55 PM 75.4 °F 43.0 °F 31% 30.08 in 10.0 mi SSW 4.6 mph - N/A   Clear
5:55 PM 71.1 °F 43.7 °F 37% 30.08 in 10.0 mi South 4.6 mph - N/A   Clear
6:55 PM 63.5 °F 47.1 °F 55% 30.09 in 10.0 mi South 4.6 mph - N/A   Clear
7:55 PM 65.1 °F 46.4 °F 51% 30.11 in 10.0 mi SSW 4.6 mph - N/A   Clear
8:55 PM 58.3 °F 50.2 °F 74% 30.12 in 10.0 mi Calm Calm - N/A   Clear
9:55 PM 56.1 °F 49.1 °F 77% 30.13 in 10.0 mi Calm Calm - N/A   Clear
10:55 PM 54.1 °F 48.6 °F 81% 30.13 in 10.0 mi Calm Calm - N/A   Clear
11:55 PM 52.9 °F 48.0 °F 84% 30.13 in 10.0 mi WNW 3.5 mph - N/A   Clear